GEFSMW_500_meanwind_090.txt.gz
Wind_Speed
6 8 10 12 13 15 16 18 19 20 21 21 21 21 21 20 19 18 16 14 12 11 10 10 11 13 16 19 21 22 23 24 27 29 30 30 30 29 28 28 28 29 28
5 7 9 11 13 15 16 18 19 21 21 21 22 22 21 20 19 18 17 15 13 11 10 9 8 10 12 15 18 20 22 23 25 27 29 29 30 30 29 29 30 30 29
4 6 8 11 13 14 16 18 19 20 21 21 22 22 21 20 19 18 17 16 14 13 11 9 8 7 9 11 14 17 20 22 23 26 28 29 30 31 31 31 31 32 32
3 5 8 10 12 14 16 17 19 20 21 21 22 22 22 21 20 19 18 17 15 13 12 10 8 7 7 9 12 14 17 20 22 24 27 29 30 32 31 33 33 33 32
2 5 8 10 12 14 15 17 18 19 20 21 22 22 22 22 21 20 19 18 16 14 12 11 10 8 7 7 10 12 15 17 20 22 25 27 30 32 32 33 34 34 33
2 5 8 10 12 14 15 16 17 18 19 20 21 22 22 22 21 21 19 19 17 15 13 11 10 9 9 7 8 10 13 15 18 21 23 26 28 31 33 34 34 35 36
2 5 8 10 12 13 15 16 17 18 19 20 21 21 21 21 21 21 20 19 18 17 15 13 12 11 10 9 8 10 12 14 17 19 21 24 27 30 32 34 35 35 36
3 5 8 10 12 13 14 15 16 17 18 19 20 21 21 21 21 21 20 19 19 18 16 15 13 12 11 10 9 9 10 12 15 17 20 23 26 29 31 33 35 36 37
3 6 8 10 12 13 14 15 16 17 18 18 19 20 20 20 20 20 20 20 19 18 17 16 15 14 12 11 10 9 10 12 13 15 18 21 24 27 29 31 34 36 37
4 6 8 10 11 13 13 14 15 16 17 18 19 19 20 20 20 20 20 19 19 19 18 17 16 15 14 12 11 11 11 12 13 15 17 19 21 24 28 30 32 34 37
5 6 8 10 11 12 13 14 15 16 17 18 19 19 20 20 20 20 20 19 19 19 19 18 17 16 15 13 13 12 12 12 12 13 15 17 19 22 25 28 30 33 35
6 7 8 9 11 12 13 14 15 16 16 17 18 19 20 20 20 20 19 19 19 19 19 18 18 17 15 14 14 13 13 12 11 11 12 14 16 18 22 25 27 30 33
7 7 8 9 10 12 13 14 15 16 16 17 19 19 20 20 20 20 19 19 20 20 19 18 18 17 16 15 15 15 14 12 11 10 10 11 13 15 17 21 24 27 29
8 8 8 9 10 12 13 14 15 16 17 18 19 20 20 20 20 20 20 19 19 19 19 19 18 18 17 16 16 15 14 13 11 9 9 10 11 12 14 16 20 23 26
9 8 9 9 10 12 13 14 15 16 17 18 19 20 20 20 20 20 20 19 19 19 19 19 19 18 17 17 16 16 14 13 11 9 9 9 10 10 12 14 16 19 22
10 9 9 10 11 12 13 15 16 16 17 18 19 20 20 20 20 20 20 20 20 19 19 19 19 18 18 17 16 16 15 13 11 10 9 8 9 10 11 13 14 16 19
11 10 10 11 11 12 14 15 16 17 18 18 19 20 20 20 21 21 21 21 20 20 19 19 18 18 18 17 16 16 15 14 12 11 10 9 9 10 11 12 13 15 17
12 12 12 12 12 13 14 15 16 17 18 18 19 20 20 21 21 21 21 21 21 20 19 19 18 18 18 17 16 16 15 14 13 12 11 10 10 10 10 11 13 14 16
14 13 13 13 13 14 15 16 17 17 18 19 20 20 21 22 21 21 21 21 21 20 19 19 18 18 17 17 17 16 15 14 14 13 13 12 11 11 11 11 13 14 15
16 15 15 15 15 15 16 17 17 18 18 19 20 21 22 22 22 22 22 22 21 21 20 19 19 18 18 17 17 16 16 15 14 14 13 13 13 12 12 12 12 13 15
17 17 16 16 16 17 17 18 18 19 19 20 21 22 23 23 23 23 23 22 22 22 21 20 19 19 18 18 17 17 16 16 15 15 14 14 13 13 13 13 13 13 14
19 19 18 18 18 18 18 19 19 20 20 21 22 23 24 24 24 23 23 23 23 22 21 21 20 20 19 19 18 18 17 17 16 16 15 15 15 14 15 15 15 15 15
21 20 20 20 20 20 20 20 20 21 21 22 23 24 24 25 25 24 24 24 23 23 22 21 21 21 21 20 20 19 18 18 17 17 17 16 16 16 17 17 16 16 17
23 23 22 22 22 21 21 21 21 22 23 23 24 25 25 26 26 25 25 25 24 23 23 22 22 22 22 21 21 21 20 20 20 19 19 18 18 18 19 19 19 19 19
25 24 24 24 23 23 23 23 23 23 24 25 26 26 27 27 27 26 26 26 25 24 24 23 23 23 23 22 22 22 22 22 22 22 21 21 21 20 21 21 21 22 22
27 26 26 25 25 24 24 24 25 25 26 26 27 28 28 28 28 28 27 26 26 25 25 25 25 24 24 24 24 24 24 24 24 24 24 24 24 24 24 24 25 25 25

GEFSMW_500_meanwind_096.txt.gz
Wind_Speed
5 5 5 5 6 7 8 9 10 12 13 14 15 16 17 16 15 14 14 13 12 10 8 7 7 7 9 12 14 16 19 21 23 25 26 26 27 27 28 28 28 28 29
6 6 5 5 6 7 8 9 10 12 13 14 16 16 17 17 16 15 14 14 12 10 8 7 7 6 7 8 11 14 16 18 21 23 25 26 27 27 27 28 28 28 29
6 6 5 5 6 7 8 10 11 12 13 14 15 16 17 17 16 15 14 14 13 11 9 8 6 6 6 6 8 11 13 16 18 21 23 25 26 27 28 29 29 29 29
6 6 5 5 6 7 8 10 11 12 13 14 15 16 16 16 16 15 14 14 13 12 11 8 7 5 4 5 7 9 11 13 15 18 20 23 26 27 28 28 29 30 29
6 6 6 6 6 7 8 9 10 11 12 13 14 15 16 16 16 15 15 14 13 13 11 9 7 6 4 4 5 7 9 12 14 16 18 21 24 27 28 29 30 31 31
6 6 6 6 6 7 8 9 10 11 12 13 14 15 15 16 16 15 15 14 14 13 12 10 8 7 5 4 5 6 8 11 13 14 17 19 22 25 27 29 29 30 32
7 6 6 6 6 7 8 9 10 11 12 12 13 14 15 16 16 15 15 14 14 13 13 11 10 8 7 5 5 6 7 10 12 13 15 18 20 23 25 27 27 29 31
8 7 6 6 6 7 8 8 9 10 11 12 13 14 15 16 16 15 15 14 14 14 13 12 11 9 8 7 5 5 6 8 11 13 15 17 19 22 24 26 27 28 30
8 7 7 6 6 7 8 8 9 10 11 12 13 14 15 15 15 15 15 15 14 14 13 12 12 10 9 8 7 6 6 7 9 11 13 15 18 21 23 25 27 28 30
9 8 7 6 6 7 7 8 9 10 11 12 13 14 14 15 15 15 15 15 14 14 13 13 12 11 10 9 8 7 7 7 8 10 13 15 17 19 21 24 26 28 29
10 9 8 7 6 7 7 8 9 10 10 11 12 13 14 15 15 15 15 14 14 14 14 13 12 12 11 10 9 8 8 8 9 9 11 14 16 17 19 21 24 26 28
11 10 9 7 7 7 7 8 9 10 10 11 12 13 14 14 14 15 15 14 14 14 14 14 13 12 12 11 10 9 9 9 10 10 11 12 14 16 17 19 22 24 26
13 11 9 8 8 7 7 8 9 9 10 11 12 13 13 14 14 15 15 15 15 15 15 14 14 13 12 12 11 10 9 9 9 10 10 10 12 13 15 17 19 21 23
14 12 11 9 9 8 8 8 9 9 10 11 11 12 13 14 15 15 15 15 15 16 15 15 14 13 13 12 12 11 11 10 10 9 9 9 10 11 13 15 16 18 19
15 14 12 11 10 9 9 9 9 9 10 11 11 12 13 14 15 15 15 15 15 15 15 15 15 14 14 13 12 12 11 11 10 9 8 8 8 9 11 13 14 15 16
16 15 14 12 11 11 10 10 10 10 10 11 11 12 13 14 15 15 16 15 15 15 15 15 15 15 14 14 13 12 12 11 10 10 9 8 8 9 10 11 13 14 16
17 16 15 14 13 12 12 11 11 11 11 11 12 13 13 14 15 16 16 16 16 16 15 16 16 15 14 14 14 13 12 11 11 10 10 8 9 10 10 11 13 15 16
18 17 16 15 15 14 14 13 12 12 12 12 13 13 14 14 15 16 16 16 16 16 16 16 16 16 15 15 14 14 13 12 11 11 10 10 9 9 10 11 12 14 15
19 18 18 17 16 16 15 15 14 14 13 13 13 14 14 15 15 16 17 17 17 17 17 17 17 16 16 15 15 15 14 14 13 12 12 11 11 11 11 12 12 14 15
20 20 19 18 18 18 17 17 16 15 15 15 14 15 15 16 16 17 17 18 18 18 18 18 17 17 16 16 16 16 15 15 14 14 13 13 12 12 13 13 13 14 15
22 21 21 20 20 19 19 19 18 17 17 16 16 16 16 17 17 18 18 18 18 19 19 19 18 18 17 17 17 17 17 16 16 15 15 14 14 14 14 14 15 15 16
23 23 23 22 22 21 21 21 20 19 19 18 18 17 18 18 18 18 19 19 19 19 19 19 19 19 18 18 18 18 18 17 17 17 16 16 15 16 16 16 16 17 17
26 25 25 24 24 23 23 23 22 21 21 20 19 19 19 19 19 20 20 20 20 20 20 20 20 20 20 20 19 19 19 18 18 18 17 17 17 17 17 18 18 19 19
27 27 27 26 26 25 25 25 24 23 23 22 21 21 21 21 21 21 22 22 21 21 21 21 22 22 22 21 21 20 20 19 19 19 19 19 19 20 20 20 20 21 22
29 29 29 28 28 28 27 27 26 25 25 24 23 23 22 22 22 23 23 23 23 23 23 23 23 24 24 23 23 22 22 21 21 21 21 21 21 22 22 22 23 24 24
31 31 30 30 30 30 29 29 28 27 27 26 25 25 24 24 24 24 24 24 24 24 25 25 25 26 26 25 25 25 24 24 23 23 23 23 23 24 24 24 25 26 26

GEFSMW_500_meanwind_102.txt.gz
Wind_Speed
8 8 8 9 9 10 11 12 14 15 16 17 18 19 19 20 19 19 18 17 17 16 15 13 11 10 9 9 9 9 11 13 15 17 18 20 22 22 24 26 27 26 26
9 8 9 9 9 10 11 12 13 15 16 17 17 18 19 19 19 19 18 17 16 15 15 14 11 10 8 7 7 7 9 11 12 15 17 19 20 22 23 25 27 26 26
10 8 9 9 9 10 11 12 13 15 15 16 17 18 19 19 19 19 17 17 16 15 14 13 12 9 7 6 6 5 7 9 11 13 14 17 19 21 23 24 26 27 27
11 9 9 9 9 10 10 12 13 14 15 15 17 18 18 19 19 18 17 16 16 15 14 13 12 9 7 7 6 5 5 7 9 12 13 15 17 19 22 23 25 26 26
11 10 9 9 9 10 10 11 12 13 14 15 16 17 18 18 18 18 17 16 16 15 14 13 11 9 7 6 5 5 5 6 8 10 12 14 16 17 20 22 24 25 25
11 10 10 9 9 10 10 11 12 12 13 14 15 16 17 18 18 18 17 16 15 15 14 13 11 9 8 6 5 5 5 5 7 9 11 13 15 17 18 20 22 23 24
11 11 10 10 10 10 10 11 11 12 12 14 15 16 17 17 18 18 17 16 15 14 14 13 11 10 9 7 6 5 5 5 5 7 9 11 13 16 17 19 21 22 23
11 11 11 10 10 10 10 11 11 12 12 13 14 15 16 17 18 17 17 16 15 14 14 13 12 11 10 9 7 6 5 5 5 6 7 9 11 14 16 18 20 22 23
12 12 11 11 11 10 10 11 11 11 12 12 13 15 16 16 17 17 17 16 15 15 14 13 13 12 11 10 8 7 6 6 6 6 7 8 10 12 14 17 18 20 22
13 13 12 12 11 11 11 11 11 11 11 12 13 14 15 16 16 16 16 16 15 15 14 14 14 13 11 10 9 8 7 7 7 7 8 9 10 11 13 16 17 19 20
14 14 13 13 12 11 11 11 11 11 11 11 12 13 14 15 16 16 16 16 16 15 14 14 14 14 12 11 10 9 9 8 8 8 8 9 10 11 13 15 17 18 19
15 15 14 14 13 12 12 11 11 11 11 11 12 12 13 15 15 16 16 15 15 15 14 14 14 14 13 12 11 10 10 9 9 8 8 9 10 11 13 15 16 18 19
16 16 15 15 14 14 13 12 11 11 11 11 11 12 13 14 15 15 15 15 16 15 14 14 14 14 13 13 12 11 11 10 10 9 10 10 11 11 12 15 17 18 19
17 17 17 16 16 15 14 13 12 12 11 11 12 12 13 14 14 14 15 16 16 15 15 15 14 14 14 13 13 12 12 11 10 10 10 10 11 11 11 13 15 17 18
19 18 18 18 17 16 16 15 14 13 12 12 12 12 13 13 13 14 15 15 16 16 15 15 15 15 14 14 14 13 13 12 11 11 11 11 10 11 11 12 13 15 16
20 20 19 19 19 18 17 16 16 15 14 13 13 13 13 13 14 14 15 15 16 16 16 16 15 15 15 15 15 14 14 13 12 12 11 11 11 11 11 11 12 13 14
22 21 21 21 20 20 19 18 17 17 16 15 14 14 14 14 14 14 15 15 15 16 16 16 16 16 16 15 15 15 15 14 14 12 12 11 11 11 11 11 12 12 14
22 23 22 22 22 21 20 20 19 18 18 17 16 16 15 15 15 15 15 15 15 16 16 16 16 16 16 16 16 16 15 15 14 13 12 12 11 11 11 11 11 12 12
23 23 24 24 23 23 22 21 21 20 20 19 18 17 17 16 16 16 15 16 16 16 16 16 16 16 16 16 16 16 16 16 15 14 13 13 12 12 11 12 12 13 13
24 24 25 25 25 25 25 24 23 22 21 21 20 19 19 18 17 17 17 16 17 17 17 16 16 16 16 16 16 17 17 16 16 15 14 14 13 13 13 13 13 14 14
26 26 26 26 26 26 26 26 25 24 23 23 22 22 21 20 19 19 18 18 18 18 17 17 17 17 17 17 17 17 17 17 17 16 16 15 15 14 14 14 15 15 15
29 29 28 28 28 28 28 28 27 26 26 25 24 24 23 22 21 21 20 20 19 19 18 18 18 18 18 18 18 18 19 19 18 18 17 16 16 16 15 15 16 16 16
31 32 31 30 30 30 30 30 29 29 28 27 27 26 25 24 23 23 22 21 21 20 20 20 19 19 19 19 20 20 20 20 19 19 18 18 17 17 17 17 17 18 18
34 34 34 33 33 32 32 32 32 31 30 29 29 28 27 26 26 25 24 23 23 22 22 21 21 20 20 20 20 21 21 20 20 20 19 19 19 18 18 19 19 19 19
37 37 36 36 35 35 34 34 34 33 32 32 31 30 29 28 27 27 26 25 24 24 23 23 22 22 21 21 21 21 21 21 21 20 20 20 20 20 20 20 21 21 22
40 40 39 39 38 37 36 36 35 35 34 33 33 32 31 30 29 28 28 27 26 25 25 24 24 23 23 23 23 23 22 22 22 22 22 22 22 22 22 22 22 23 24

GEFSMW_500_meanwind_108.txt.gz
Wind_Speed
6 7 6 5 6 6 8 9 10 11 12 13 14 16 17 18 18 18 18 17 17 16 15 14 13 11 10 9 8 8 10 11 13 15 17 19 19 22 23 25 27 27 27
6 7 6 6 6 6 8 9 10 11 12 13 14 15 16 17 18 18 18 18 17 16 15 14 12 11 9 8 6 6 8 10 11 13 15 17 18 21 22 24 25 27 27
6 6 6 5 6 6 8 9 10 11 11 12 13 14 15 17 17 18 18 18 16 15 14 13 12 10 8 7 6 5 6 8 10 11 13 15 17 19 21 23 25 26 27
6 6 6 6 6 7 8 9 10 11 11 11 12 13 15 16 17 18 18 17 16 15 14 12 11 10 8 6 5 4 4 7 9 10 11 12 15 18 20 22 24 26 27
5 5 5 6 6 7 8 9 10 10 10 10 11 13 14 16 16 17 17 17 16 14 14 12 11 10 8 6 5 3 3 4 6 9 10 12 13 16 18 20 22 25 27
5 5 6 7 7 7 8 9 9 10 10 10 11 12 14 15 16 16 17 17 16 14 13 13 11 10 9 7 5 3 3 3 5 7 9 11 12 14 16 18 20 22 24
6 6 7 7 8 8 8 9 9 10 10 10 11 12 13 14 15 15 16 16 15 14 13 12 11 10 9 8 6 4 3 3 4 6 8 10 11 13 14 17 19 21 23
7 7 8 8 9 9 9 9 9 9 9 10 10 11 12 13 14 14 15 15 15 14 13 12 11 11 10 8 7 6 4 4 4 5 6 8 10 12 13 16 18 20 22
8 8 9 9 10 10 10 10 10 10 10 10 10 11 12 13 13 13 14 14 15 14 13 12 11 10 10 9 8 7 5 2 2 4 5 7 8 11 12 14 16 19 21
9 9 10 10 11 11 11 10 10 10 10 10 10 10 11 12 13 13 13 14 14 13 12 12 10 10 10 10 9 8 6 4 3 3 4 6 7 9 11 13 15 17 19
10 10 11 12 12 12 12 11 11 11 11 10 10 10 11 11 12 12 12 13 13 13 12 11 11 11 10 10 9 8 7 5 4 4 4 5 7 8 11 13 14 16 18
12 12 12 13 13 13 13 13 12 12 11 11 11 10 11 11 11 12 12 12 12 12 12 11 11 11 10 10 9 8 7 6 5 5 5 5 6 8 10 12 14 16 17
14 14 14 14 14 15 14 14 14 13 13 12 11 11 11 11 11 11 11 11 11 11 11 11 11 11 10 9 9 8 7 7 6 6 6 6 6 8 9 11 13 15 17
15 15 15 15 15 16 16 16 16 15 14 14 13 12 12 11 11 11 11 11 11 11 11 11 11 11 10 9 9 9 8 7 7 7 7 7 7 8 9 10 12 14 16
15 15 16 17 17 17 17 17 17 17 16 16 15 14 13 12 12 11 11 11 11 11 11 11 11 11 10 10 9 9 9 8 8 8 8 8 7 8 8 10 12 13 15
17 17 17 18 19 19 19 19 19 19 18 18 17 17 16 15 14 13 12 12 11 11 11 11 11 11 10 10 10 10 9 9 9 9 8 8 8 8 8 9 10 12 13
19 19 19 20 21 21 21 21 21 21 20 20 19 19 18 17 16 15 14 13 12 12 12 11 11 11 11 11 10 10 10 10 10 10 10 9 9 8 9 9 9 11 12
20 20 21 21 22 22 22 23 23 23 23 22 21 21 20 19 18 17 16 15 14 13 13 12 12 12 11 11 11 11 11 11 11 11 11 10 10 10 10 10 10 11 11
24 23 23 23 23 24 24 24 25 25 24 24 23 23 22 22 21 19 18 17 16 15 14 14 13 13 12 12 12 12 11 11 11 11 11 11 11 11 11 11 11 12 12
27 27 26 25 26 26 26 26 27 26 26 26 26 25 24 24 23 22 21 19 18 17 16 15 15 14 14 13 13 13 12 12 12 12 12 11 11 12 11 12 12 12 13
29 29 29 29 29 29 29 28 29 29 29 29 28 28 27 26 25 24 23 22 21 20 19 18 17 16 15 15 14 14 14 13 13 12 12 12 12 12 12 12 13 13 14
33 33 33 32 32 33 32 31 31 31 32 31 30 30 29 29 28 26 26 25 23 22 21 20 19 18 17 17 16 15 15 15 14 14 13 13 12 12 12 13 13 14 15
37 37 36 35 36 36 35 34 34 34 34 33 33 32 32 31 30 29 28 27 26 24 23 22 21 20 19 18 18 17 17 16 16 15 15 14 14 14 14 14 15 15 16
40 40 40 39 38 38 38 37 37 36 36 35 35 35 34 33 32 31 30 29 28 26 25 24 23 22 21 20 20 19 19 18 17 17 16 16 15 15 15 15 16 16 17
43 43 42 41 40 40 40 40 40 39 38 38 37 37 36 36 34 33 32 31 30 29 27 26 25 24 23 22 21 21 20 20 19 19 18 17 17 17 17 17 17 17 18
45 45 44 43 42 42 42 42 42 41 41 40 39 39 39 38 37 35 34 33 32 31 30 28 27 26 25 24 23 23 22 21 21 20 20 19 19 19 19 19 19 19 20

GEFSMW_500_meanwind_114.txt.gz
Wind_Speed
9 9 8 8 8 8 7 7 8 9 10 11 11 12 13 14 15 16 16 17 16 16 15 15 14 13 12 11 10 10 10 10 10 12 14 16 17 18 20 21 23 24 25
8 8 8 8 8 8 7 8 8 9 10 10 11 12 13 14 15 16 16 17 16 16 15 15 13 12 11 10 10 10 9 10 10 11 12 13 15 17 18 20 22 24 25
8 8 7 7 8 8 8 8 8 9 9 10 11 12 12 13 14 15 16 17 17 16 15 14 13 11 10 10 9 8 8 8 9 9 11 12 13 15 16 18 20 22 24
8 7 7 8 8 8 8 8 8 9 9 10 11 11 12 13 14 15 16 17 17 16 15 14 13 11 10 10 9 8 7 7 7 9 10 11 12 13 14 16 18 20 22
8 7 8 8 8 8 8 8 9 9 9 10 11 11 12 13 14 15 16 17 17 17 15 14 13 12 10 9 8 8 6 6 6 7 9 10 11 12 13 15 17 19 21
7 7 7 8 8 8 8 9 9 10 9 10 11 11 12 13 13 14 15 17 17 17 15 14 13 12 10 9 8 7 6 4 5 6 7 9 10 11 12 14 16 18 20
8 7 8 8 9 9 9 9 10 10 10 10 11 11 12 12 13 14 15 16 17 16 15 14 12 11 10 9 8 7 5 4 4 4 6 8 9 10 11 13 16 17 19
8 8 8 9 9 9 10 10 10 10 11 11 11 11 12 12 13 14 14 15 16 15 15 14 12 11 10 9 8 7 5 4 4 4 5 7 8 9 10 12 15 17 18
8 9 9 9 10 10 10 11 11 11 12 12 12 12 12 12 13 13 14 14 15 15 14 14 12 11 9 9 8 7 6 5 4 4 5 6 8 8 10 12 14 15 17
9 9 10 10 10 11 11 12 12 13 13 13 13 13 13 12 13 13 13 14 14 14 14 13 12 11 10 9 8 7 6 5 4 4 4 6 7 8 9 10 12 14 16
9 10 10 11 11 12 12 13 13 14 14 14 14 14 14 13 13 13 14 14 14 13 13 13 12 11 10 9 9 8 7 6 5 4 5 6 7 8 9 10 11 13 15
11 11 12 12 13 13 14 14 14 15 15 15 15 15 15 15 14 14 14 14 13 13 13 12 12 11 10 9 9 8 7 6 5 5 5 6 6 7 9 10 11 12 15
13 13 14 14 14 15 15 16 16 16 16 17 17 17 17 16 16 15 15 15 14 13 13 13 12 11 10 9 9 8 7 6 6 5 5 6 6 7 9 10 11 12 14
15 16 16 16 16 17 17 18 18 18 18 18 18 18 18 18 18 17 17 16 15 14 14 13 13 12 11 9 9 8 8 7 6 6 6 6 6 7 8 10 10 11 13
17 17 18 18 18 19 19 20 20 20 20 20 20 20 20 20 20 19 19 18 17 16 15 14 13 12 11 10 10 9 8 7 7 7 7 7 7 7 8 9 10 11 12
19 19 20 20 21 21 21 22 22 22 22 22 22 23 23 22 22 22 21 20 19 18 17 16 15 14 13 11 11 10 9 9 9 8 8 8 8 8 8 9 9 10 11
21 22 22 23 23 23 24 24 24 24 25 25 25 25 25 25 25 24 24 23 22 21 20 19 17 16 15 14 13 12 11 10 10 10 9 9 9 8 9 9 10 11 11
23 24 25 25 26 26 26 26 27 27 27 27 27 27 27 27 27 27 26 26 24 23 22 21 20 18 17 16 15 14 13 13 12 11 11 10 10 9 9 10 11 11 12
26 27 27 28 28 29 29 29 30 30 30 30 30 30 30 30 30 29 28 28 27 26 25 24 23 21 20 18 17 16 15 15 14 13 12 12 12 11 11 11 11 12 12
31 31 31 31 31 32 32 32 32 33 33 33 33 33 32 32 32 32 31 30 30 29 28 26 25 24 23 21 20 19 18 17 16 15 14 14 13 13 12 12 12 12 13
34 34 35 36 36 36 36 36 36 36 36 36 36 35 35 35 34 34 34 33 32 31 31 29 28 27 26 25 23 22 20 19 18 17 16 15 15 14 14 14 14 14 14
39 39 39 40 40 40 40 40 40 40 39 39 39 39 38 38 37 36 36 35 35 34 33 32 30 29 28 27 26 25 23 22 20 20 18 17 17 16 16 16 15 15 15
43 43 43 43 44 44 44 43 43 43 42 42 42 42 41 40 39 38 37 37 37 36 35 34 33 31 30 30 29 28 26 25 23 22 21 20 19 19 18 17 17 16 16
47 48 48 47 47 47 46 46 46 45 45 45 44 44 43 42 41 40 40 39 38 38 37 36 35 34 33 32 31 30 29 28 26 25 24 23 22 21 20 20 19 18 18
50 50 51 50 49 49 48 48 48 48 47 46 46 45 45 45 44 42 41 41 40 40 39 38 37 36 35 34 33 32 31 30 29 27 26 25 24 23 22 22 21 20 20
51 51 51 52 51 50 49 49 49 49 48 47 47 47 47 47 47 46 44 44 43 42 42 40 39 38 37 36 35 34 34 32 31 30 29 27 26 25 25 24 23 23 22

GEFSMW_500_meanwind_120.txt.gz
Wind_Speed
6 7 8 8 9 9 9 10 10 10 10 11 11 12 13 13 13 14 14 15 15 16 16 16 16 15 14 12 11 10 10 10 10 11 12 13 16 17 18 20 21 23 24
6 7 7 8 8 9 9 9 9 10 10 11 11 12 13 13 13 14 14 15 16 16 16 16 15 14 13 12 11 10 9 9 9 10 11 13 15 16 18 19 20 22 23
5 6 7 8 8 9 9 9 10 10 11 11 11 12 13 13 13 14 15 15 16 16 17 16 15 14 13 12 10 9 9 9 8 9 10 12 14 15 17 18 19 21 23
5 6 7 7 8 9 9 9 10 11 11 11 11 12 13 13 14 14 15 15 16 16 17 16 16 15 13 12 11 10 8 8 8 8 9 10 12 15 17 17 18 20 22
5 6 6 7 8 9 9 9 10 11 11 11 12 13 13 14 14 15 15 16 16 16 17 17 16 15 13 12 11 9 8 7 7 8 8 9 11 13 15 17 18 19 21
6 6 6 7 8 8 9 10 10 11 12 12 12 13 14 14 15 15 16 16 16 17 17 17 16 14 13 12 11 9 8 7 6 7 8 8 10 12 14 16 17 18 19
6 6 7 7 8 9 9 10 11 11 12 12 13 13 14 15 15 16 16 16 16 16 16 16 15 14 13 12 11 9 8 7 6 7 7 8 10 12 13 15 16 17 18
6 7 7 8 8 9 10 11 12 12 13 13 14 14 14 15 16 16 16 17 16 16 16 16 15 14 13 12 11 10 8 7 7 7 7 8 9 11 12 14 15 16 17
6 7 8 8 9 10 11 12 13 13 13 14 15 15 15 15 16 16 17 17 17 16 16 16 15 14 13 12 11 10 9 8 8 7 8 8 10 11 12 13 14 16 17
7 8 8 8 9 10 11 13 13 14 14 15 16 16 16 17 17 17 17 17 17 17 17 16 15 15 14 13 12 11 10 9 8 8 8 9 10 11 12 12 13 14 16
8 9 9 10 10 11 12 13 14 14 15 16 17 17 18 18 18 18 18 18 18 18 17 17 16 16 15 14 13 12 10 9 9 8 8 8 9 10 11 12 13 13 15
10 10 11 12 12 13 14 15 15 16 17 17 18 18 19 19 19 19 20 20 19 19 18 18 17 16 16 15 14 13 11 10 9 8 8 8 8 10 10 11 13 13 14
11 11 12 13 14 15 15 16 17 18 19 19 19 20 20 21 21 21 21 21 21 20 20 19 19 18 17 16 15 14 13 12 10 10 9 9 9 10 10 12 13 14 14
13 12 13 14 15 16 17 18 19 20 20 21 21 22 22 23 23 23 23 22 22 22 22 21 20 19 18 17 16 15 14 13 12 12 11 11 11 11 11 12 13 14 14
14 15 15 16 17 18 19 20 21 22 22 23 23 24 24 25 25 25 25 25 24 24 23 23 22 22 21 19 18 17 16 15 14 14 13 13 13 12 12 13 14 14 15
16 17 18 18 19 20 21 22 23 24 24 25 26 26 27 27 27 27 28 27 27 26 26 25 24 23 23 22 21 20 18 17 17 16 15 15 14 14 14 14 14 14 15
17 18 20 20 21 22 24 25 26 26 27 28 29 29 29 30 30 30 30 30 30 29 28 27 26 25 24 24 23 22 21 20 19 18 18 17 17 16 15 15 15 15 16
19 20 21 22 23 24 26 27 28 29 30 31 32 32 32 32 33 33 33 32 32 32 31 30 29 28 27 26 25 25 25 23 22 21 20 19 19 18 18 17 17 17 16
22 24 25 26 27 28 29 30 32 33 34 35 35 36 36 35 36 36 35 35 35 34 34 33 32 31 29 29 28 28 27 26 25 24 22 22 21 21 20 19 19 18 18
26 27 29 30 30 31 32 34 35 36 38 39 39 39 39 39 39 39 38 38 37 37 37 36 35 34 32 31 30 30 29 28 27 26 25 23 23 22 22 21 20 20 19
30 31 32 33 34 35 36 38 39 40 40 41 41 41 41 41 41 41 41 41 40 40 39 38 37 36 35 33 32 32 31 30 29 28 27 26 25 24 24 23 22 21 20
33 34 35 36 38 39 40 40 41 42 43 43 43 43 43 43 43 43 43 42 42 42 41 41 40 39 37 36 35 34 33 33 31 30 30 29 28 27 26 25 24 23 22
36 37 39 40 41 42 42 43 44 45 45 45 45 45 45 45 45 44 44 43 43 42 42 42 41 40 39 38 37 36 35 34 34 32 31 31 30 29 28 28 27 26 25
39 40 41 43 44 44 44 46 46 47 47 47 46 46 46 45 45 44 44 43 43 43 43 43 42 42 40 40 39 38 37 37 36 34 33 33 32 31 30 29 28 27 27
41 42 43 45 46 47 47 48 48 48 48 48 47 47 47 47 46 45 44 44 43 44 44 43 42 42 42 41 41 41 39 38 38 37 36 35 33 32 32 31 30 28 28
43 44 46 47 48 49 49 49 49 49 50 49 49 48 48 48 48 47 46 45 44 44 44 44 44 43 43 42 42 42 42 41 40 39 37 36 35 34 33 32 31 30 29

GEFSMW_500_meanwind_126.txt.gz
Wind_Speed
5 5 6 6 6 6 6 7 7 8 9 10 10 10 11 12 14 15 16 17 18 18 18 18 18 18 18 16 16 15 13 12 12 11 10 10 10 12 12 14 16 16 17
4 4 5 5 6 6 6 7 7 8 9 9 10 10 11 12 14 15 16 17 18 18 18 19 19 19 18 17 16 15 13 13 11 10 9 9 10 11 11 13 15 16 17
4 4 5 5 6 6 6 6 7 8 9 10 10 10 11 13 14 15 16 17 18 18 19 19 19 19 18 17 16 15 14 13 11 10 9 9 9 10 11 12 14 16 17
4 4 5 5 5 6 6 6 7 8 9 9 10 11 12 13 14 15 16 17 18 18 19 19 19 19 18 17 16 16 14 13 12 10 9 9 9 9 10 12 14 15 16
4 4 5 5 5 6 6 6 7 9 10 10 11 12 12 13 14 15 16 17 18 18 19 19 19 19 18 17 17 16 15 13 12 10 9 9 9 9 9 11 13 15 16
4 4 4 5 5 5 6 6 7 9 10 11 11 12 13 14 14 15 16 17 18 18 19 19 19 19 18 17 17 17 15 14 12 11 10 9 9 8 9 10 12 14 16
3 4 4 4 5 5 6 6 8 9 10 11 12 12 13 14 15 16 16 17 18 18 19 19 19 18 18 18 17 16 15 14 13 11 10 9 9 9 9 9 11 13 15
4 4 5 5 5 6 6 7 8 9 11 12 12 13 14 15 16 16 17 17 18 19 19 19 19 19 19 18 17 16 15 14 13 12 11 10 9 9 9 10 11 13 14
5 5 5 5 6 7 7 8 9 10 12 13 13 14 15 16 17 17 18 18 18 19 19 19 19 19 19 19 18 17 15 14 13 12 12 12 11 10 10 11 12 13 14
6 5 5 6 7 8 8 9 10 11 12 13 14 15 16 17 18 19 19 19 19 20 20 20 20 20 20 19 18 17 16 15 13 13 12 12 11 10 11 11 13 14 14
6 6 7 7 8 9 9 10 11 12 13 14 15 16 17 18 19 20 20 20 21 21 21 21 21 21 21 20 19 18 17 16 15 14 13 12 12 12 12 12 13 14 15
7 8 8 9 10 10 11 12 12 14 15 16 17 18 18 20 21 21 22 22 23 23 23 23 22 22 22 21 20 20 19 17 16 15 14 14 13 13 13 13 13 14 15
9 10 10 11 11 11 12 13 14 15 16 18 19 20 20 21 22 23 24 24 25 25 25 24 24 24 23 22 22 21 20 19 18 17 16 15 15 15 15 15 14 15 15
11 11 12 12 12 12 13 15 16 17 18 19 21 22 23 24 25 25 26 26 27 27 27 27 26 26 25 25 24 23 23 21 20 19 18 17 17 17 16 16 16 16 16
11 12 12 13 14 14 15 17 18 19 20 22 23 24 25 26 27 28 28 29 29 29 29 29 29 28 28 27 27 26 25 24 23 21 20 20 19 19 18 18 18 18 18
12 12 13 15 16 16 17 19 20 21 23 24 25 26 27 28 29 30 31 31 31 31 31 31 31 31 30 30 30 29 28 27 26 25 23 22 22 21 21 21 20 20 20
13 14 15 16 17 18 19 20 22 23 24 25 27 27 28 30 31 32 33 33 33 34 34 34 34 33 33 33 33 32 31 30 29 28 27 25 24 24 23 23 22 22 22
14 15 16 18 19 20 21 22 24 26 27 28 29 31 32 33 34 35 35 35 36 36 36 37 36 36 36 35 35 34 34 33 32 31 30 29 27 26 26 26 25 24 24
17 18 19 20 21 23 24 25 26 28 29 31 32 34 35 36 36 37 38 38 38 38 39 39 39 38 37 37 36 36 35 35 34 33 32 32 31 29 28 28 27 27 26
20 21 22 23 24 25 27 28 29 31 32 33 35 36 37 38 38 39 40 41 41 41 41 41 40 40 39 38 38 38 37 37 36 35 34 34 33 32 32 31 30 29 28
23 24 25 26 27 28 30 31 33 34 35 37 38 39 40 41 41 42 42 43 43 42 42 41 41 40 39 39 39 39 39 39 37 36 36 35 34 34 34 33 32 31 30
27 28 28 29 30 32 33 34 35 36 38 39 41 42 42 43 43 44 44 44 44 43 43 43 42 40 40 39 39 39 39 40 39 38 37 36 36 36 35 35 34 33 32
29 30 31 32 34 35 36 37 38 39 40 42 43 43 44 44 44 45 45 45 45 45 44 43 43 42 41 40 40 40 39 40 40 39 38 37 37 37 37 36 35 35 34
32 33 34 35 37 38 39 40 41 42 43 44 44 45 45 45 45 46 46 46 46 46 45 45 44 43 42 41 41 41 41 40 40 40 39 39 38 39 38 38 37 36 35
35 36 37 38 39 40 41 42 44 45 45 46 45 46 46 47 47 47 47 47 47 47 47 46 46 46 45 44 43 43 43 43 42 41 41 40 39 39 39 37 37 37 36
38 39 40 41 41 42 43 44 45 47 47 47 47 48 48 48 49 49 48 48 49 49 49 48 48 47 47 46 44 43 43 43 43 42 41 41 41 40 40 39 38 38 38

GEFSMW_500_meanwind_132.txt.gz
Wind_Speed
3 3 4 3 3 2 2 2 2 2 3 4 4 4 5 6 7 8 9 10 11 13 14 14 15 15 15 14 13 13 12 12 11 9 8 7 7 8 9 11 12 13 14
4 3 3 2 2 2 1 1 2 2 3 4 4 5 6 7 8 9 10 11 12 13 14 14 15 15 15 15 14 13 13 12 11 10 8 7 6 7 9 10 12 13 15
3 3 3 3 3 3 2 1 1 2 3 4 4 5 6 7 8 9 9 10 11 12 13 14 14 15 15 15 15 14 14 13 12 10 9 7 6 6 7 10 12 13 15
3 3 3 3 3 3 2 2 2 2 3 4 5 5 6 7 8 9 10 10 11 12 13 14 14 15 16 16 15 15 15 14 13 11 9 7 7 6 6 8 11 13 14
3 3 3 3 3 3 2 2 2 3 3 4 5 5 6 7 8 8 9 10 11 12 13 14 15 15 16 16 16 15 15 15 13 12 10 8 7 6 6 7 9 11 13
3 2 2 2 2 2 2 2 3 3 3 4 4 5 6 8 9 9 10 11 12 13 14 14 15 16 16 17 16 16 16 15 14 12 11 9 8 7 7 7 8 10 13
2 2 2 2 2 2 3 3 2 3 3 4 5 6 7 8 9 10 11 12 12 13 14 15 16 16 17 17 18 17 17 16 15 14 12 10 9 9 8 8 9 11 12
2 2 2 2 2 2 3 3 3 3 4 5 6 7 8 9 9 10 11 12 13 14 15 15 16 17 18 18 18 18 17 17 15 14 13 11 10 10 9 9 10 11 12
3 3 3 3 2 3 3 3 3 4 4 5 7 8 8 9 10 11 12 13 14 15 16 17 17 18 19 19 19 18 18 17 16 15 13 12 11 11 10 10 11 12 13
4 4 4 4 3 4 4 4 4 5 5 6 7 8 9 10 12 12 13 14 15 16 17 18 19 20 20 19 19 19 19 18 17 16 15 14 13 12 12 12 12 13 14
5 5 4 4 4 5 5 5 6 6 7 8 8 10 11 12 13 14 15 16 17 18 19 20 20 21 21 21 21 20 20 19 19 17 16 16 15 14 14 14 14 14 15
5 5 5 5 6 6 6 7 8 8 8 9 10 11 13 14 15 16 17 17 18 19 20 21 22 22 23 23 23 22 22 21 20 19 19 18 17 17 16 16 16 16 17
6 6 6 7 7 7 7 8 9 10 10 11 12 14 15 16 16 17 18 19 21 22 22 24 24 25 25 25 25 24 24 23 22 21 21 20 20 19 19 19 19 18 19
7 8 8 8 8 8 9 9 10 12 12 13 14 16 17 18 19 19 21 22 23 24 25 26 27 27 27 27 27 26 26 25 24 24 23 22 22 21 21 21 21 21 21
9 9 9 10 10 10 11 11 12 13 14 15 17 18 19 20 21 22 23 25 26 27 28 29 29 30 30 30 29 29 28 28 27 27 26 25 25 24 24 24 23 24 24
9 10 10 11 12 12 13 13 15 16 17 18 19 20 21 22 23 25 26 28 28 29 30 31 32 32 32 32 32 31 31 31 31 30 30 29 28 27 27 27 26 26 26
11 11 12 13 13 14 15 16 17 18 19 20 21 22 24 25 26 28 29 30 31 32 33 34 34 35 35 35 35 35 34 34 34 34 33 32 32 30 30 30 30 29 28
12 12 13 14 15 16 17 18 19 20 21 22 23 25 26 28 29 31 32 33 34 35 36 37 37 37 37 38 38 38 38 38 37 37 36 35 34 34 33 33 32 32 31
13 14 15 16 17 19 19 20 21 22 24 25 26 28 29 31 32 33 34 35 36 37 38 39 39 40 40 40 41 40 40 39 38 38 38 38 37 36 36 35 34 35 35
16 16 17 18 19 21 22 23 24 25 26 28 29 30 32 33 34 35 36 38 39 40 41 41 41 42 42 42 42 42 41 40 40 40 40 40 39 38 37 37 36 36 36
18 19 20 22 23 24 25 26 28 28 29 30 32 33 35 36 36 38 39 40 41 42 42 42 42 42 43 43 43 43 42 41 41 41 41 40 40 40 39 39 38 37 37
22 22 23 24 25 27 28 29 30 31 32 34 35 36 37 38 39 40 42 43 43 43 43 43 43 43 44 45 45 44 43 43 43 42 41 41 40 41 40 40 39 38 38
25 26 26 27 28 29 31 31 32 33 34 36 37 38 39 41 42 43 44 44 44 45 44 44 44 45 45 46 46 46 45 45 44 43 42 42 42 41 41 41 41 40 39
27 28 29 30 31 32 33 34 35 36 37 38 39 40 41 43 44 44 45 45 46 46 46 46 46 46 47 47 47 47 47 47 46 44 43 43 42 42 41 42 42 42 42
30 31 32 33 34 35 35 36 37 38 39 40 41 42 44 45 45 46 46 47 48 48 48 48 48 48 48 49 49 49 48 47 46 45 44 43 42 42 42 42 43 44 44
33 34 35 35 36 37 38 38 39 40 41 42 44 45 46 47 47 48 48 49 49 49 49 49 50 51 51 51 50 50 49 48 47 46 45 44 43 43 42 42 42 43 44

GEFSMW_500_meanwind_138.txt.gz
Wind_Speed
6 6 5 5 5 5 4 4 4 4 4 5 5 5 6 7 7 8 9 10 11 12 12 13 14 14 14 14 14 13 13 12 12 11 10 9 7 5 4 6 8 10 11
6 5 5 5 5 4 4 4 4 4 4 5 5 5 6 7 8 9 10 11 12 12 12 13 14 15 15 15 14 14 13 13 12 11 11 10 8 6 4 5 7 9 10
6 5 5 5 5 5 4 4 4 4 4 4 4 5 6 7 7 9 10 11 12 12 13 13 14 15 15 15 15 15 14 14 13 12 11 11 9 7 5 4 6 8 10
6 6 5 5 5 5 5 4 4 4 4 4 4 4 5 6 7 8 10 10 11 12 13 13 14 15 16 16 16 16 15 15 14 13 12 11 10 9 7 6 5 7 10
5 5 5 5 5 5 5 4 4 3 4 4 4 4 5 6 7 8 9 10 11 13 13 13 14 15 16 16 17 17 16 15 15 14 13 12 11 10 8 7 6 7 9
6 5 5 5 5 5 5 4 4 4 4 4 4 4 5 6 7 8 9 11 11 12 13 13 14 15 16 16 17 17 16 16 16 15 13 12 12 11 10 8 7 7 8
6 6 5 5 5 5 5 5 4 4 3 3 4 4 5 6 8 9 10 11 12 13 14 14 14 15 15 16 17 17 17 16 16 16 15 14 13 12 11 10 9 8 9
6 6 6 6 5 5 5 5 4 4 4 4 4 5 5 6 8 9 10 11 12 13 14 14 15 15 16 16 17 18 18 17 17 17 16 15 15 14 13 11 11 10 11
6 6 6 5 5 5 5 5 5 4 4 4 5 5 6 7 8 9 10 12 13 14 14 15 16 16 17 17 17 18 18 18 18 18 18 17 17 16 14 13 13 12 13
6 6 5 5 5 5 5 5 5 5 5 5 5 6 7 8 9 10 12 13 14 15 15 16 17 17 18 18 19 19 20 20 20 20 19 19 18 18 16 16 15 15 14
6 6 6 6 6 5 5 5 5 5 5 6 7 8 9 10 11 13 13 14 15 16 17 18 18 19 19 20 21 22 22 22 22 22 21 21 20 19 19 19 18 18 17
7 7 7 6 7 6 6 6 6 6 6 7 8 9 10 12 13 14 15 16 17 18 19 19 20 21 22 23 23 24 24 24 24 24 24 24 23 22 22 21 21 21 21
8 8 7 7 7 7 7 7 7 7 7 9 10 11 12 13 14 15 17 18 19 20 21 21 22 23 24 25 25 25 26 26 26 26 25 25 25 24 24 24 24 24 24
9 8 8 8 8 8 7 8 8 8 9 10 11 12 14 15 16 17 18 19 20 21 23 23 24 25 26 27 27 28 28 28 28 28 28 27 27 27 27 27 27 27 26
9 9 8 9 9 9 9 9 10 11 11 12 13 14 15 17 17 19 20 21 22 24 24 25 26 27 28 28 29 30 30 30 30 30 30 31 30 30 30 30 29 29 29
10 9 10 10 10 10 10 10 11 13 13 14 15 16 17 18 20 21 23 23 24 25 26 27 28 29 30 30 31 31 32 32 32 33 33 34 34 33 33 32 32 32 32
10 10 11 11 11 11 11 12 13 14 15 15 17 18 19 20 22 23 24 26 26 27 28 29 31 32 32 32 33 33 34 35 35 36 36 36 36 35 34 34 33 33 34
11 11 12 12 13 13 14 14 15 16 17 18 19 20 21 23 24 26 27 28 28 29 30 32 33 34 35 35 36 36 37 37 37 37 38 37 37 36 36 35 35 35 34
13 13 13 14 15 15 16 17 17 18 19 20 21 22 24 25 27 28 29 30 31 32 33 34 35 36 37 38 38 39 39 39 39 39 39 39 38 38 38 37 37 36 36
15 15 16 16 17 18 19 20 20 21 22 22 23 25 27 28 29 30 31 32 33 34 35 36 37 39 39 40 40 40 40 40 40 41 41 41 41 41 40 39 39 38 38
16 17 18 19 20 21 21 22 23 23 24 25 26 28 29 30 32 33 33 35 35 36 37 38 40 41 41 42 42 41 42 42 42 42 42 43 43 43 41 41 40 40 40
19 19 20 21 22 23 24 25 25 26 26 28 29 31 32 33 34 35 36 37 38 38 40 41 42 42 43 43 43 43 44 44 44 45 45 45 45 44 43 42 42 42 42
21 22 22 23 24 25 26 27 28 29 29 31 32 34 34 35 36 37 38 39 40 41 42 43 43 44 44 44 45 45 45 45 46 46 47 47 46 45 44 44 44 43 43
24 24 25 25 26 27 28 29 30 31 32 34 35 35 36 37 38 39 40 41 42 43 44 44 45 45 45 46 46 47 47 47 47 48 49 49 47 46 45 45 43 43 43
27 27 27 28 29 29 31 32 33 34 35 35 36 37 38 39 40 40 41 43 44 44 45 46 46 47 47 48 49 49 50 50 50 50 50 49 48 47 46 45 44 43 44
29 30 30 31 31 32 32 34 35 36 37 37 38 39 39 40 41 42 43 45 45 46 47 47 48 49 50 50 51 52 52 52 52 52 51 50 50 49 48 47 46 46 45